| time (UTC) | temp C | wind direction | speed KPH | gust KPH | rain 1hr cm | rain 24hr cm | rain mn cm | humidity % | barometer mb |
| 20260510175102 | 13 | 144 | 6.4 | 17.7 | 0.00 | 0.36 | 0.00 | 36 | 1016.8 |
| 20260510174104 | 13 | 340 | 6.4 | 14.5 | 0.00 | 0.36 | 0.00 | 38 | 1016.9 |
| 20260510173104 | 12 | 217 | 6.4 | 11.3 | 0.00 | 0.36 | 0.00 | 38 | 1016.9 |
| 20260510172059 | 12 | 126 | 6.4 | 19.3 | 0.00 | 0.36 | 0.00 | 39 | 1017.0 |
| 20260510171100 | 12 | 335 | 3.2 | 17.7 | 0.00 | 0.36 | 0.00 | 39 | 1017.0 |
| 20260510170058 | 12 | 230 | 6.4 | 17.7 | 0.00 | 0.36 | 0.00 | 38 | 1017.1 |
| 20260510165058 | 12 | 292 | 6.4 | 14.5 | 0.00 | 0.36 | 0.00 | 38 | 1017.0 |
| 20260510164055 | 12 | 154 | 3.2 | 11.3 | 0.00 | 0.36 | 0.00 | 40 | 1017.0 |
| 20260510163056 | 11 | 351 | 6.4 | 25.7 | 0.00 | 0.36 | 0.00 | 37 | 1017.0 |
| 20260510162100 | 11 | 126 | 3.2 | 14.5 | 0.00 | 0.36 | 0.00 | 39 | 1016.9 |
| 20260510161055 | 11 | 315 | 6.4 | 19.3 | 0.00 | 0.36 | 0.00 | 42 | 1016.9 |
| 20260510160056 | 11 | 242 | 3.2 | 11.3 | 0.00 | 0.36 | 0.00 | 41 | 1016.8 |
| 20260510155058 | 11 | 151 | 3.2 | 11.3 | 0.00 | 0.36 | 0.00 | 43 | 1016.8 |
| 20260510154055 | 11 | 351 | 3.2 | 17.7 | 0.00 | 0.36 | 0.00 | 41 | 1016.8 |
| 20260510153052 | 10 | 221 | 3.2 | 17.7 | 0.00 | 0.36 | 0.00 | 46 | 1016.6 |
| 20260510152049 | 10 | 272 | 6.4 | 19.3 | 0.00 | 0.36 | 0.00 | 46 | 1016.6 |
| 20260510151052 | 10 | 180 | 3.2 | 14.5 | 0.00 | 0.36 | 0.00 | 46 | 1016.5 |
| 20260510150050 | 10 | 302 | 3.2 | 14.5 | 0.00 | 0.36 | 0.00 | 47 | 1016.4 |
| 20260510145050 | 10 | 259 | 3.2 | 11.3 | 0.00 | 0.36 | 0.00 | 46 | 1016.4 |
| 20260510144048 | 10 | 318 | 3.2 | 11.3 | 0.00 | 0.36 | 0.00 | 48 | 1016.3 |
| 20260510143048 | 10 | 275 | 6.4 | 14.5 | 0.00 | 0.36 | 0.00 | 47 | 1016.2 |
| 20260510142048 | 9 | 355 | 3.2 | 14.5 | 0.00 | 0.36 | 0.00 | 46 | 1016.1 |
| 20260510141049 | 9 | 286 | 6.4 | 11.3 | 0.00 | 0.36 | 0.00 | 46 | 1016.0 |
| 20260510140050 | 8 | 355 | 6.4 | 14.5 | 0.00 | 0.36 | 0.00 | 47 | 1015.9 |
| 20260510135047 | 8 | 312 | 3.2 | 11.3 | 0.00 | 0.36 | 0.00 | 46 | 1015.9 |
| 20260510134051 | 8 | 350 | 3.2 | 11.3 | 0.00 | 0.36 | 0.00 | 49 | 1015.9 |
| 20260510133050 | 8 | 334 | 3.2 | 17.7 | 0.00 | 0.36 | 0.00 | 50 | 1015.8 |
| 20260510132057 | 8 | 273 | 3.2 | 11.3 | 0.00 | 0.36 | 0.00 | 52 | 1015.8 |
| 20260510131100 | 8 | 302 | 3.2 | 11.3 | 0.00 | 0.36 | 0.00 | 53 | 1015.7 |
| 20260510130041 | 7 | 333 | 6.4 | 11.3 | 0.00 | 0.36 | 0.00 | 56 | 1015.5 |
| 20260510125042 | 7 | 345 | 3.2 | 11.3 | 0.00 | 0.36 | 0.00 | 58 | 1015.5 |
| 20260510124042 | 7 | 316 | 3.2 | 8.0 | 0.00 | 0.36 | 0.00 | 60 | 1015.4 |
| 20260510123041 | 7 | 281 | 3.2 | 8.0 | 0.00 | 0.36 | 0.00 | 61 | 1015.4 |
| 20260510122044 | 6 | 332 | 3.2 | 8.0 | 0.00 | 0.36 | 0.00 | 61 | 1015.1 |
| 20260510121047 | 6 | 329 | 3.2 | 8.0 | 0.00 | 0.36 | 0.00 | 64 | 1015.0 |
| 20260510120044 | 6 | 305 | 3.2 | 11.3 | 0.00 | 0.36 | 0.00 | 64 | 1014.8 |
| 20260510115044 | 6 | 313 | 3.2 | 8.0 | 0.00 | 0.36 | 0.00 | 66 | 1014.8 |
| 20260510114039 | 5 | 327 | 3.2 | 6.4 | 0.00 | 0.36 | 0.00 | 67 | 1014.6 |
| 20260510113036 | 5 | 314 | 0.0 | 3.2 | 0.00 | 0.36 | 0.00 | 69 | 1014.6 |
| 20260510112036 | 5 | 318 | 0.0 | 3.2 | 0.00 | 0.36 | 0.00 | 71 | 1014.5 |
| 20260510111037 | 4 | 315 | 0.0 | 6.4 | 0.00 | 0.36 | 0.00 | 71 | 1014.3 |
| 20260510110037 | 4 | 320 | 0.0 | 3.2 | 0.00 | 0.36 | 0.00 | 73 | 1014.2 |
| 20260510105035 | 4 | 320 | 0.0 | 3.2 | 0.00 | 0.36 | 0.00 | 72 | 1014.0 |
| 20260510104036 | 4 | 320 | 0.0 | 3.2 | 0.00 | 0.36 | 0.00 | 71 | 1013.9 |
| 20260510103034 | 3 | 320 | 0.0 | 3.2 | 0.00 | 0.36 | 0.00 | 72 | 1013.8 |
| 20260510102035 | 3 | 320 | 0.0 | 0.0 | 0.00 | 0.36 | 0.00 | 73 | 1013.8 |
| 20260510101032 | 3 | 320 | 0.0 | 0.0 | 0.00 | 0.36 | 0.00 | 74 | 1013.6 |
| 20260510100033 | 3 | 320 | 0.0 | 0.0 | 0.00 | 0.36 | 0.00 | 75 | 1013.5 |
| 20260510095033 | 3 | 320 | 0.0 | 0.0 | 0.00 | 0.36 | 0.00 | 75 | 1013.3 |
| 20260510094031 | 3 | 320 | 0.0 | 0.0 | 0.00 | 0.36 | 0.00 | 75 | 1013.1 |
| 20260510093033 | 4 | 320 | 0.0 | 0.0 | 0.00 | 0.36 | 0.00 | 75 | 1013.1 |
| 20260510092034 | 4 | 320 | 0.0 | 0.0 | 0.00 | 0.36 | 0.00 | 74 | 1013.0 |
| 20260510091029 | 5 | 320 | 0.0 | 0.0 | 0.00 | 0.36 | 0.00 | 72 | 1012.7 |
| 20260510090032 | 5 | 320 | 0.0 | 0.0 | 0.00 | 0.36 | 0.00 | 71 | 1012.6 |
| 20260510085029 | 5 | 320 | 0.0 | 3.2 | 0.00 | 0.36 | 0.00 | 71 | 1012.4 |
| 20260510084031 | 5 | 320 | 0.0 | 3.2 | 0.00 | 0.36 | 0.00 | 71 | 1012.3 |
| 20260510083029 | 5 | 320 | 0.0 | 3.2 | 0.00 | 0.36 | 0.00 | 70 | 1012.1 |
| 20260510082030 | 5 | 315 | 0.0 | 0.0 | 0.00 | 0.36 | 0.00 | 70 | 1011.9 |
| 20260510081031 | 6 | 315 | 0.0 | 6.4 | 0.00 | 0.36 | 0.00 | 69 | 1011.7 |
| 20260510080033 | 6 | 321 | 3.2 | 6.4 | 0.00 | 0.36 | 0.00 | 70 | 1011.6 |
| 20260510075026 | 5 | 322 | 0.0 | 6.4 | 0.00 | 0.36 | 0.00 | 69 | 1011.4 |
| 20260510074026 | 6 | 329 | 0.0 | 3.2 | 0.00 | 0.36 | 0.00 | 70 | 1011.3 |
| 20260510073030 | 6 | 329 | 0.0 | 0.0 | 0.00 | 0.36 | 0.00 | 71 | 1011.1 |
| 20260510072026 | 6 | 329 | 0.0 | 3.2 | 0.00 | 0.36 | 0.00 | 68 | 1011.1 |
| 20260510071026 | 6 | 329 | 0.0 | 3.2 | 0.00 | 0.36 | 0.00 | 68 | 1010.9 |
| 20260510070024 | 6 | 329 | 0.0 | 3.2 | 0.00 | 0.36 | 0.00 | 68 | 1010.7 |
| 20260510065028 | 7 | 329 | 0.0 | 6.4 | 0.00 | 0.36 | 0.00 | 67 | 1010.6 |
| 20260510064022 | 7 | 323 | 3.2 | 6.4 | 0.00 | 0.36 | 0.00 | 66 | 1010.5 |
| 20260510063025 | 7 | 325 | 3.2 | 8.0 | 0.00 | 0.36 | 0.00 | 66 | 1010.3 |
| 20260510062025 | 7 | 329 | 3.2 | 8.0 | 0.00 | 0.36 | 0.00 | 66 | 1010.2 |
| 20260510061023 | 8 | 325 | 3.2 | 8.0 | 0.00 | 0.36 | 0.00 | 64 | 1010.1 |
| 20260510060023 | 8 | 336 | 6.4 | 11.3 | 0.00 | 0.36 | 0.00 | 62 | 1010.0 |
| 20260510055017 | 8 | 341 | 6.4 | 17.7 | 0.00 | 0.36 | 0.00 | 63 | 1009.8 |
| 20260510054015 | 8 | 340 | 3.2 | 11.3 | 0.00 | 0.36 | 0.00 | 64 | 1009.8 |
| 20260510053016 | 8 | 331 | 0.0 | 0.0 | 0.00 | 0.36 | 0.00 | 66 | 1009.7 |
| 20260510052015 | 8 | 331 | 0.0 | 0.0 | 0.00 | 0.36 | 0.00 | 65 | 1009.5 |
| 20260510051015 | 8 | 331 | 0.0 | 0.0 | 0.00 | 0.36 | 0.00 | 64 | 1009.4 |
| 20260510050017 | 8 | 331 | 0.0 | 0.0 | 0.00 | 0.36 | 0.00 | 63 | 1009.1 |
| 20260510045014 | 9 | 331 | 0.0 | 0.0 | 0.00 | 0.36 | 0.00 | 61 | 1009.1 |
| 20260510044016 | 10 | 331 | 0.0 | 3.2 | 0.00 | 0.36 | 0.00 | 60 | 1008.9 |
| 20260510043024 | 10 | 331 | 0.0 | 6.4 | 0.00 | 0.36 | 0.00 | 60 | 1008.8 |
| 20260510042016 | 10 | 331 | 3.2 | 6.4 | 0.00 | 0.36 | 0.00 | 59 | 1008.6 |
| 20260510041016 | 10 | 328 | 3.2 | 6.4 | 0.00 | 0.36 | 0.00 | 59 | 1008.4 |
| 20260510040014 | 11 | 330 | 3.2 | 6.4 | 0.00 | 0.36 | 0.00 | 58 | 1008.3 |
| 20260510035011 | 11 | 331 | 0.0 | 0.0 | 0.00 | 0.36 | 0.36 | 58 | 1008.2 |
| 20260510034010 | 11 | 329 | 3.2 | 8.0 | 0.00 | 0.36 | 0.36 | 58 | 1008.0 |
| 20260510033011 | 11 | 338 | 3.2 | 8.0 | 0.00 | 0.36 | 0.36 | 58 | 1008.0 |
| 20260510032011 | 12 | 335 | 6.4 | 8.0 | 0.00 | 0.36 | 0.36 | 58 | 1007.8 |
| 20260510031011 | 12 | 327 | 3.2 | 14.5 | 0.00 | 0.36 | 0.36 | 56 | 1007.8 |
| 20260510030010 | 13 | 333 | 3.2 | 8.0 | 0.00 | 0.36 | 0.36 | 54 | 1007.5 |
| 20260510025007 | 13 | 336 | 6.4 | 14.5 | 0.00 | 0.36 | 0.36 | 52 | 1007.2 |
| 20260510024007 | 13 | 317 | 6.4 | 14.5 | 0.00 | 0.36 | 0.36 | 52 | 1007.1 |
| 20260510023005 | 13 | 349 | 6.4 | 14.5 | 0.00 | 0.36 | 0.36 | 51 | 1007.0 |
| 20260510022003 | 14 | 343 | 3.2 | 11.3 | 0.00 | 0.36 | 0.36 | 50 | 1006.7 |
| 20260510021004 | 14 | 323 | 6.4 | 14.5 | 0.00 | 0.36 | 0.36 | 50 | 1006.5 |
| 20260510020004 | 14 | 333 | 6.4 | 11.3 | 0.00 | 0.36 | 0.36 | 50 | 1006.2 |
| 20260510015008 | 14 | 282 | 6.4 | 17.7 | 0.00 | 0.36 | 0.36 | 49 | 1006.0 |
| 20260510014006 | 14 | 19 | 8.0 | 19.3 | 0.00 | 0.36 | 0.36 | 49 | 1005.7 |
| 20260510013009 | 15 | 348 | 8.0 | 22.5 | 0.00 | 0.36 | 0.36 | 48 | 1005.2 |
| 20260510012002 | 15 | 355 | 3.2 | 17.7 | 0.00 | 0.36 | 0.36 | 53 | 1004.8 |
| 20260510011003 | 14 | 310 | 0.0 | 6.4 | 0.00 | 0.36 | 0.36 | 61 | 1004.5 |
| 20260510010004 | 14 | 321 | 0.0 | 3.2 | 0.00 | 0.36 | 0.36 | 65 | 1004.1 |
| 20260510005003 | 15 | 321 | 0.0 | 3.2 | 0.00 | 0.36 | 0.36 | 59 | 1004.1 |
| 20260510004003 | 15 | 321 | 0.0 | 6.4 | 0.00 | 0.36 | 0.36 | 55 | 1003.9 |
| 20260510003001 | 16 | 332 | 3.2 | 8.0 | 0.00 | 0.36 | 0.36 | 52 | 1003.8 |
| 20260510002002 | 16 | 336 | 0.0 | 6.4 | 0.00 | 0.36 | 0.36 | 51 | 1003.5 |
| 20260510001003 | 16 | 336 | 3.2 | 11.3 | 0.00 | 0.36 | 0.36 | 50 | 1003.4 |
| 20260510000001 | 16 | 311 | 3.2 | 11.3 | 0.00 | 0.36 | 0.36 | 49 | 1003.3 |
| 20260509235006 | 16 | 278 | 3.2 | 8.0 | 0.00 | 0.36 | 0.36 | 49 | 1003.1 |
| 20260509234001 | 17 | 309 | 6.4 | 17.7 | 0.00 | 0.36 | 0.36 | 47 | 1003.1 |
| 20260509233004 | 17 | 313 | 6.4 | 22.5 | 0.00 | 0.36 | 0.36 | 46 | 1003.0 |
| 20260509232002 | 17 | 326 | 8.0 | 22.5 | 0.00 | 0.36 | 0.36 | 45 | 1002.9 |
| 20260509231002 | 18 | 234 | 6.4 | 19.3 | 0.00 | 0.36 | 0.36 | 44 | 1002.8 |
| 20260509230004 | 18 | 227 | 8.0 | 22.5 | 0.00 | 0.36 | 0.36 | 43 | 1002.7 |
| 20260509225003 | 18 | 350 | 8.0 | 25.7 | 0.00 | 0.36 | 0.36 | 41 | 1002.5 |
| 20260509224002 | 18 | 292 | 8.0 | 43.5 | 0.00 | 0.36 | 0.36 | 40 | 1002.3 |
| 20260509222958 | 18 | 279 | 8.0 | 22.5 | 0.00 | 0.36 | 0.36 | 42 | 1002.0 |
| 20260509221957 | 18 | 276 | 8.0 | 22.5 | 0.00 | 0.36 | 0.36 | 42 | 1001.7 |
| 20260509220958 | 18 | 333 | 6.4 | 22.5 | 0.00 | 0.36 | 0.36 | 42 | 1001.6 |
| 20260509215957 | 18 | 267 | 8.0 | 22.5 | 0.00 | 0.36 | 0.36 | 42 | 1001.5 |
| 20260509214955 | 18 | 209 | 6.4 | 17.7 | 0.00 | 0.36 | 0.36 | 44 | 1001.4 |
| 20260509213957 | 18 | 285 | 8.0 | 25.7 | 0.00 | 0.36 | 0.36 | 43 | 1001.2 |
| 20260509212954 | 18 | 278 | 8.0 | 29.0 | 0.00 | 0.36 | 0.36 | 43 | 1001.3 |
| 20260509211951 | 19 | 249 | 6.4 | 22.5 | 0.00 | 0.36 | 0.36 | 43 | 1001.3 |
| 20260509210957 | 18 | 242 | 8.0 | 25.7 | 0.00 | 0.36 | 0.36 | 43 | 1001.2 |
| 20260509205956 | 18 | 0 | 8.0 | 29.0 | 0.00 | 0.36 | 0.36 | 43 | 1001.2 |
| 20260509204954 | 18 | 285 | 8.0 | 29.0 | 0.00 | 0.36 | 0.36 | 46 | 1001.2 |
| 20260509203953 | 18 | 227 | 6.4 | 19.3 | 0.00 | 0.36 | 0.36 | 46 | 1001.2 |
| 20260509202956 | 17 | 265 | 6.4 | 32.2 | 0.00 | 0.36 | 0.36 | 46 | 1001.5 |
| 20260509201954 | 17 | 250 | 6.4 | 22.5 | 0.00 | 0.36 | 0.36 | 50 | 1001.8 |
| 20260509200951 | 17 | 263 | 8.0 | 32.2 | 0.00 | 0.36 | 0.36 | 49 | 1001.9 |
| 20260509195951 | 17 | 0 | 6.4 | 35.4 | 0.00 | 0.36 | 0.36 | 51 | 1001.9 |
| 20260509194955 | 17 | 355 | 6.4 | 19.3 | 0.00 | 0.36 | 0.36 | 56 | 1001.9 |
| 20260509193954 | 17 | 233 | 6.4 | 14.5 | 0.00 | 0.36 | 0.36 | 61 | 1001.7 |
| 20260509192951 | 16 | 347 | 3.2 | 14.5 | 0.15 | 0.36 | 0.36 | 71 | 1001.7 |
| 20260509191952 | 16 | 216 | 3.2 | 11.3 | 0.36 | 0.36 | 0.36 | 80 | 1002.0 |
| 20260509190954 | 15 | 175 | 3.2 | 14.5 | 0.36 | 0.36 | 0.36 | 82 | 1002.0 |
| 20260509185952 | 15 | 234 | 3.2 | 14.5 | 0.36 | 0.36 | 0.36 | 85 | 1002.0 |
| 20260509184954 | 13 | 203 | 0.0 | 6.4 | 0.36 | 0.36 | 0.36 | 89 | 1002.0 |
| 20260509183951 | 12 | 222 | 3.2 | 11.3 | 0.36 | 0.36 | 0.36 | 84 | 1001.7 |
| 20260509183002 | 14 | 244 | 11.3 | 35.4 | 0.18 | 0.18 | 0.20 | 71 | 1002.4 |
| 20260509181949 | 18 | 334 | 6.4 | 43.5 | 0.00 | 0.00 | 0.00 | 54 | 1001.5 |
| 20260509180949 | 18 | 184 | 8.0 | 25.7 | 0.00 | 0.00 | 0.00 | 50 | 1000.6 |